Regional Weather Roundup
Issued by NWS

Home | Current Version | Previous Version | Graphics & Text | Print | Product List | Glossary On
Versions: 1 2 3 4 5 6 7 8 9 10 11 12 13 14 15 16 17 18 19 20 21 22 23 24 25 26 27 28 29 30 31 32 33 34 35 36 37 38 39 40 41 42 43 44 45 46 47 48 49 50
000
ASUS43 KLMK 191510
RWRKY
KENTUCKY REGIONAL WEATHER ROUNDUP
NATIONAL WEATHER SERVICE LOUISVILLE KY
1000 AM EST SUN FEB 19 2017

NOTE "FAIR" INDICATES FEW OR NO CLOUDS BELOW 12,000 FEET
WITH NO SIGNIFICANT WEATHER AND/OR OBSTRUCTIONS TO VISIBILITY.

KYZ001>023-026-027-061>063-070>075-191600-
WESTERN AND SOUTH CENTRAL KENTUCKY

CITY           SKY/WX    TMP DP  RH WIND       PRES   REMARKS
PADUCAH        FOG       50  48  93 CALM      30.10R VSB 1/4
HENDERSON      CLOUDY    52  48  87 W3        30.10S
OWENSBORO      CLOUDY    50  49  96 CALM      30.11R FOG
HOPKINSVILLE   PTSUNNY   54  54 100 SW3       30.12R
BOWLING GREEN  CLOUDY    52  49  89 CALM      30.13R FOG
GLASGOW        CLOUDY    53  52  99 SW3       30.13R
$$

KYZ024-025-028>034-038-045-046-053-191600-
NORTH CENTRAL KENTUCKY

CITY           SKY/WX    TMP DP  RH WIND       PRES   REMARKS
LOUISVILLE/SDF CLOUDY    53  49  86 SW6       30.11R FOG
LOUISVILLE/LOU CLOUDY    53  49  86 S5        30.11R FOG
FORT KNOX      CLOUDY    51  51 100 S5        30.10R FOG
$$

KYZ035>037-039>044-047>052-055>060-089>105-191600-
NORTHEAST KENTUCKY

CITY           SKY/WX    TMP DP  RH WIND       PRES   REMARKS
LEXINGTON      CLOUDY    50  47  89 SW6       30.11R FOG
COVINGTON      CLOUDY    49  46  90 W7        30.08R
FRANKFORT      CLOUDY    51  47  86 SW6       30.09R FOG
$$

KYZ054-064>069-076>088-106>120-191600-
SOUTHEAST KENTUCKY

CITY           SKY/WX    TMP DP  RH WIND       PRES   REMARKS
JACKSON        CLOUDY    48  44  86 VRB3      30.11R
LONDON         CLOUDY    50  46  86 W5        30.13R
SOMERSET       CLOUDY    48  46  93 CALM      30.15R
MIDDLESBORO    CLOUDY    50  49  96 CALM      30.14R
MONTICELLO     CLOUDY    51  48  89 VRB3      30.15R
$$





USA.gov is the U.S. government's official web portal to all federal, state and local government web resources and services.